Showing default

KINEIS-2C, 62929

Orbit data source: Space-Track

KINEIS-2C, 62929 is a French payload satellite in SSO that was launched on Sat, 08 Feb 2025 UTC via an ELECTRON launch vehicle from the Rocket Lab Launch Complex (RLLC). Payload-class satellites include a variety of spacecraft equipped with specific instruments for various scientific and technological missions. These include communications satellites like Starlink; space stations such as the ISS; scientific satellites like the Hubble; Earth observation satellites from companies like Planet Labs, Umbra, and HawkEye 360; GPS; miniature CubeSats for education and research; and military/defense satellites.

Loading next visibility...
Identifier
62929, 2025-028B
Orbit
SSO
Country
Flag of FRFR
Related business
Manufacturer
KINEIS
Mission
Operational Commercial Communications
Bus & Motor
CUBESAT 16U, Unknown motor
Mass
28 kg wet, 28 kg dry
Launch date (UTC)
2025-02-08 (9 months ago)
Launch vehicle
ELECTRON
Launch site
Rocket Lab Launch Complex (RLLC)
Object type
Payload
Rocket body
Debris
Shape & HBR
Box + 2 Pan + 1 Ant, 1.0 m
Radar Cross Section
0.229 m², Medium (>0.1 m² and < 1m²)

Expand to show TLE details & history
Last TLE update: 8 hours ago

TLE from 8 hours ago
0 KINEIS-2C
1 62929U 25028B   25305.61981917  .00002011  00000-0  32557-3 0  9991
2 62929  98.0163 357.4593 0002057  54.0180 306.1218 14.72364265 39121
Epoch: 2025-11-01T14:52Z
TLE epoch observation values (Epoch: 2025-11-01T14:52:32.376Z)
Latitude
-0°
Longitude
93.17711°
Altitude
655.685 km
Speed
7.53 km/s
True Right ascension
23h 49m 50s
True Declination
0° 00' 00"
Sunlit
Object was in full shadow at epoch
Visualization orbit readout
Latitude
Unknown
Longitude
Unknown
Altitude
Unknown
Speed
Unknown
Apparent Right ascension
Unknown
Apparent Declination
Unknown
Sunlit
N/A
Visualization observer readout
Local Sidereal Time
18:28:36
Azimuth
Unknown
Elevation
Unknown
Doppler factor
Unknown
Orbital elements
Apogee altitude
652.033 km
Perigee altitude
649.141 km
Semi-major axis
7,028.724 km
Eccentricity
0.00021
Inclination
98.0163°
RAAN
357.4593°
Arg. of periapsis
54.018°
True anomaly
306.10276°
Mean anomaly
306.1218°
Eccentric anomaly
306.11228°
Mean motion
3.68323 °/min
Orbital period
97.74 mins
BSTAR
0.00032557
Loading maneuver chart data...
Computing Atmospheric mass density...
Loading historical data...
Loading historical data...
Loading historical data...
Loading historical data...
Loading historical data...
Loading historical data...
Loading historical data...

Documentation

Showing up to 5 results
|